Шахбуз

Азербайджан     39°24′32″N   45°34′39″E
темп.,
°C
ветер,
м/с
пор.,
м/с
влажн.,
%
обл.,
%
осадки,
мм/ч
давл.,
гПа
погр.,
м
18 мая, вт
вт1801:00+12ссз12420 0.0 101138
04:00+11ссз224339 0.0 101118
07:00+13всв114666 0.0 101123
10:00+17юз343370 0.0 10111395
13:00+19юз473029 0.0 10112317
16:00+21юз472570 0.0 10093034
19:00+18зсз343714 0.0 1011179
22:00+14всв22412 0.0 101211
19 мая, ср
ср1901:00+12св22440 0.0 101320
04:00+11всв22460 0.0 101319
07:00+14всв22490 0.0 101428
10:00+18ю33370 0.0 10131172
13:00+21ююз44290 0.0 10121920
16:00+23юз26243 0.0 10102330
19:00+21юз11379 0.0 101055
22:00+16в11402 0.0 101211
20 мая, чт
чт2001:00+15всв22410 0.0 101315
04:00+13всв32470 0.0 101518
07:00+14всв22550 0.0 101652
10:00+19ююз22440 0.0 1015830
13:00+22ююз44320 0.0 10151767
16:00+23ю23230 0.0 10131993
19:00+22ю11350 0.0 101427
22:00+16всв33430 0.0 101627
21 мая, пт
пт2101:00+15св33440 0.0 101625
04:00+14всв22430 0.0 101521
07:00+17всв22470 0.0 101726
10:00+22ююз32330 0.0 1016821
13:00+25ююз34280 0.0 10151627
16:00+26ю23200 0.0 10132313
19:00+25вюв11330 0.0 101313
22:00+18всв334218 0.0 101527
22 мая, сб
сб2201:00+17всв3347100 0.0 101527
04:00+15всв33480 0.0 101526
07:00+18всв224840 0.0 101531
10:00+23ююв223311 0.0 1013847
13:00+26ююз45265 0.0 10111955
16:00+27ю3420100 0.0 10082866
19:00+24ююв4542100 0.0 1008205
22:00+14св4481100 5.1 101695